カタログに戻る

THORAD AGENA D DEB

運用中PO
NORAD 4777·DEBRIS·🇺🇸 United States

打ち上げ Apr 8, 1970 から Vandenberg Space Force Base

Loading…

次のパス (今後24時間)

TLE

最新Source: Space-Track

元期: Sep 14, 2026, 13:41 UTC

1 04777U 70025DX  26257.57040603  .00000821  00000-0  68309-3 0  9996
2 04777  99.9462  17.5595 0006664 223.4047 199.9236 13.91926575819478

AllMySatでTHORAD AGENA D DEBをリアルタイム追跡

Download on the App Store